weather.gov     
National Weather Service

Terminal Aerodrome Forecast
NWS Homepage
This page is being discontinued on March 12, 2014.
The same data is available at this site. Please update your bookmarks.
Thank you, and we apologize for the inconvenience.
Please send an email to SR-SRH.Webmaster@noaa.gov with any concerns.


Current Version
Previous Version:    01  02  03  04  05  06  07  08  09  10  11  12  13  14  15  16  17  18  19  20  21  22  23  24  25  
[Printable]
916
FTUS45 KCYS 290500
TAFRWL
TAF
KRWL 290530Z 2906/3006 11009G20KT P6SM SCT080
     FM290800 02006KT P6SM SCT080
     FM291500 04010KT P6SM BKN050
     FM291800 04012KT 4SM -SHRA OVC045
     FM300200 03014KT 3SM TSRA BKN025CB OVC040=


U.S. Dept. of Commerce
NOAA National Weather Service
1325 East West Highway
Silver Spring, MD 20910
E-mail: w-nws.webmaster@noaa.gov
Page last modified: May 16, 2007
NATIONAL WEATHER SERVICE: for Safety, for Work, for Fun - FOR LIFE